Location: Unspecified
(0.0000°N, 0.0000°E)
Time: 05:50:49
(UTC+00:00)

COSMOS 2491 DEB - Visible Passes

Search period start: 17 February 2026 00:00
Search period end: 27 February 2026 00:00
Orbit: 1439 x 1489 km, 82.5° (Epoch: 15 February)

Date Brightness Start Highest point End Pass type
(mag) Time Alt. Az. Time Alt. Az. Time Alt. Az.
17 Feb ? 03:18:37 10° SSE 03:25:38 28° E 03:32:36 10° NE visible
17 Feb ? 05:13:23 10° SSW 05:20:56 35° W 05:28:30 10° NNW visible
18 Feb ? 04:09:46 10° S 04:18:21 84° E 04:26:54 10° N visible
19 Feb ? 03:08:34 10° SSE 03:15:45 30° E 03:22:53 10° NE visible
19 Feb ? 05:03:38 10° SSW 05:11:02 33° W 05:18:29 10° NNW visible
20 Feb ? 03:59:53 10° S 04:08:28 88° E 04:17:01 10° N visible
21 Feb ? 02:58:31 10° SSE 03:05:52 32° E 03:13:08 10° NE visible
21 Feb ? 04:53:54 10° SW 05:01:09 32° W 05:08:26 10° NNW visible
22 Feb ? 03:49:58 10° S 03:58:34 87° W 04:07:07 10° N visible
23 Feb ? 02:48:28 10° SSE 02:55:58 34° E 03:03:23 10° NNE visible
23 Feb ? 04:44:09 10° SW 04:51:15 30° W 04:58:22 10° NNW visible
24 Feb ? 03:40:05 10° S 03:55:30 18° N 03:57:11 10° N visible
25 Feb ? 02:38:26 10° SSE 02:54:48 - NNE 02:41:08 20° SE visible
25 Feb ? 04:34:24 10° SW 04:49:43 - NNW 04:35:48 15° SW visible
26 Feb ? 03:30:10 10° S 03:48:30 - N 03:31:56 18° S visible
